MPEC 2006-W113: 2006 WK130

The following Minor Planet Electronic Circular may be linked-to from your own Web pages, but must not otherwise be redistributed electronically.


Read MPEC 2006-W112 Read MPEC 2006-W114


M.P.E.C. 2006-W113                               Issued 2006 Nov. 29, 16:05 UT

     The Minor Planet Electronic Circulars contain information on unusual
         minor planets and routine data on comets.  They are published
   on behalf of Commission 20 of the International Astronomical Union by the
          Minor Planet Center, Smithsonian Astrophysical Observatory,
                          Cambridge, MA 02138, U.S.A.

             Prepared using the Tamkin Foundation Computer Network

                              MPC@CFA.HARVARD.EDU
          URL http://cfa-www.harvard.edu/iau/mpc.html  ISSN 1523-6714

                                  2006 WK130

Observations:
     K06WD0K* C2006 11 28.49282 08 59 29.18 +15 39 12.7          19.8 V EW113G96
     K06WD0K  C2006 11 28.49824 08 59 24.28 +15 40 17.6          19.8 V EW113G96
     K06WD0K  C2006 11 28.50369 08 59 19.32 +15 41 23.1          19.6 V EW113G96
     K06WD0K  C2006 11 28.50919 08 59 14.28 +15 42 29.1          19.8 V EW113G96
     K06WD0K  C2006 11 28.51300 08 59 10.82 +15 43 14.9          19.6 V EW113G96
     K06WD0K  C2006 11 28.51353 08 59 10.32 +15 43 21.5          19.9 V EW113G96
     K06WD0K  C2006 11 28.51406 08 59 09.85 +15 43 27.8          19.9 V EW113G96
     K06WD0K  C2006 11 28.51460 08 59 09.38 +15 43 34.2          19.8 V EW113G96
     K06WD0K  C2006 11 29.11988 08 50 24.02 +17 40 56.4                 EW113J95
     K06WD0K  C2006 11 29.12154 08 50 22.47 +17 41 16.1                 EW113J95
     K06WD0K  C2006 11 29.12319 08 50 21.11 +17 41 35.2          19.5 R EW113J95
     K06WD0K  C2006 11 29.13138 08 50 13.89 +17 43 08.1          20.2 R EW113J95

Observer details:
G96 Mt. Lemmon Survey.  Observer R. E. Hill.  Measurers E. C. Beshore,
    E. J. Christensen, G. J. Garradd, A. R. Gibbs, A. D. Grauer, R. E. Hill,
    R. A. Kowalski, S. M. Larson, R. H. McNaught.  1.5-m reflector + CCD.
J95 Great Shefford.  Observer P. Birtwhistle.  0.40-m f/6.0 Schmidt-Cassegrain
    + CCD.

Orbital elements:
2006 WK130                                               Earth MOID = 0.0201 AU
Epoch 2006 Nov. 21.0 TT = JDT 2454060.5                 MPC
M  14.39513              (2000.0)            P               Q
n   0.34266302     Peri.  275.37992     +0.94869474     +0.21647940
a   2.0225125      Node    72.27343     -0.09209766     +0.88646035
e   0.6723894      Incl.   14.00194     -0.30248358     +0.40905344
P   2.88           H   22.3           G   0.15
From 12 observations 2006 Nov. 28-29.

Ephemeris:
2006 WK130               a,e,i = 2.02, 0.67, 14                  q = 0.6626
Date    TT    R. A. (2000) Decl.     Delta      r     Elong.  Phase     V
2006 11 21    10 57.21   -13 32.5    0.107    0.954    68.7   105.4    21.2
2006 11 26    09 37.53   +06 29.5    0.104    1.008    98.9    75.3    20.0
2006 12 01    08 24.46   +23 03.4    0.124    1.063   125.6    49.0    19.7
2006 12 06    07 26.69   +32 30.0    0.159    1.118   143.8    31.4    19.9
2006 12 11    06 44.27   +37 13.4    0.203    1.173   155.4    20.5    20.2
2006 12 16    06 13.85   +39 30.1    0.253    1.227   161.6    14.6    20.6
2006 12 21    05 52.22   +40 31.7    0.308    1.281   162.9    13.1    21.0
2006 12 26    05 37.03   +40 53.7    0.367    1.335   160.6    14.2    21.6
2006 12 31    05 26.61   +40 54.3    0.429    1.388   156.6    16.4    22.1

Kyle E. Smalley              (C) Copyright 2006 MPC           M.P.E.C. 2006-W113

Read MPEC 2006-W112 Read MPEC 2006-W114


Our Web policy. Index to the CBAT/MPC/ICQ pages.

MPC

Valid HTML 4.01!